www.pogodaiklimat.ru

Погода и климат >> Архив погоды >> Россия >> Камчатский край >> Петропавловск-Камчатский


АРХИВ ПОГОДЫ в Петропавловск-Камчатском

Время (UTC), дата Ветер
(напр.,м/с)
 
Видим.   Явления Облачность Т
(С)
Тd
(С)
f
(%)
Тe
(С)
Тes
(С)
Комфортность P
(гПа)
Po
(гПа)
Тmin
(С)
Tmax
(С)
R
(мм)
S
(см)
15 14.02 С 4 50 км 1/1 600 м
[Sc]
-9.6 -20.4 41 -16 -16 по сезону 1001.2 998.1
18 14.02 С 6 50 км 3/1 600 м
[Sc Ci fib]
-10.7 -21.8 40 -19 -19 прохладно 1000.9 997.8
21 14.02 С 7-11
{13}
50 км 1/0
[Ci fib]
-11.5 -22.1 41 -21 -21 холодно 1001.2 998.0 -11.6 91
00 15.02 С 9-12
{13}
50 км ясно -9.7 -20.6 41 -20 -19 холодно 1001.5 998.4
03 15.02 С 7-10
{12}
50 км 9/9 1000 м
[Sc]
-7.8 -19.1 40 -16 -16 прохладно 1001.0 997.9
06 15.02 С 6
{10}
50 км 9/8 1000 м
[Sc Ac trans Ci fib]
-7.2 -17.7 43 -15 -15 прохладно 1002.3 999.2
09 15.02 С 8-10
{10}
20 км 10/10 600 м
[Sc]
-8.1 -16.4 51 -17 -17 прохладно 1003.6 1000.5 -7.1
12 15.02 С 5
{11}
10 км слабый ливневой снег 10/10 600 м
[Cb cap]
-8.7 -14.3 64 -16 -16 прохладно 1004.3 1001.2
15 15.02 С 6
{10}
2000 м слабый ливневой снег 10/10 600 м
[Cb cap]
-9.1 -11.7 81 -18 -18 прохладно 1005.0 1001.8
18 15.02 СЗ 6 4000 м слабый ливневой снег 10/10 600 м
[Cb cap]
-8.0 -12.4 71 -16 -16 по сезону 1005.0 1001.9
21 15.02 С 5
{10}
20 км в посл. час ливневой снег 10/6 600 м
[Sc diur, vesp Ac trans Ci fib]
-7.3 -11.8 70 -15 -15 по сезону 1006.5 1003.4 -9.5 0.5 92
00 16.02 СЗ 5 20 км {ливн. осадки} 9/3 600 м
[Sc Ac trans Ci fib]
-7.2 -12.4 66 -14 -14 по сезону 1007.6 1004.5
03 16.02 СЗ 3 20 км 10/8 600 м
[Sc Ac trans]
-5.2 -11.2 63 -10 -10 по сезону 1007.6 1004.6
06 16.02 С 2 20 км 10/5 600 м
[Sc Ac trans Ci fib]
-4.4 -10.5 62 -8 -8 по сезону 1008.7 1005.7
09 16.02 СЗ 3 20 км 10/8 600 м
[Sc Ac As]
-4.1 -8.9 69 -9 -9 по сезону 1009.6 1006.5 -4.1
12 16.02 С 1 20 км слабый ливневой снег 10/10 600 м
[Cb cap]
-4.8 -8.2 77 -7 -7 по сезону 1009.9 1006.8
15 16.02 СЗ 2 20 км {ливн. осадки} 8/3 600 м
[Sc diur, vesp Ac trans Ci fib]
-5.5 -8.2 81 -10 -10 по сезону 1010.0 1006.9
18 16.02 С 2 20 км {ливн. осадки} 3/1 600 м
[Sc Ac trans Ci fib]
-6.1 -9.5 77 -10 -10 по сезону 1010.1 1007.0
21 16.02 СЗ 2 50 км 4/1 600 м
[Sc Ac trans Ci fib]
-7.5 -8.7 91 -12 -12 по сезону 1010.6 1007.5 -7.5 0.0 92
00 17.02 СЗ 5 50 км 5/1 600 м
[Sc Ci fib]
-5.8 -10.1 72 -13 -11 по сезону 1010.7 1007.6 -8.0
03 17.02 СЗ 1 20 км 10/10 600 м
[Sc]
-4.5 -10.0 65 -6 -6 по сезону 1010.0 1006.9
06 17.02 З 1 1000 м ливневой снег 10/10 600 м
[Cb cap]
-4.9 -7.2 84 -7 -7 по сезону 1009.5 1006.4
09 17.02 штиль 0 2000 м ливневой снег 10/10 600 м
[Cb cap]
-4.3 -5.4 92 -5 -5 тепло 1008.8 1005.7 -3.4 3
12 17.02 ЮВ 6-11
{11}
1000 м слабая крупа {ливн. осадки, метель} 10/10 600 м
[Cb cap]
-2.0 -3.4 90 -9 -9 по сезону 1007.7 1004.7
15 17.02 ЮВ 6-13
{14}
10 км слабый ливневой снег {метель} 10/8 600 м
[Cb cap Ac trans]
-1.4 -6.4 69 -8 -8 по сезону 1006.5 1003.5
18 17.02 ЮВ 7-13
{15}
10 км слабый ливневой снег {метель} 10/9 600 м
[Cb cap Ac trans]
-1.2 -7.1 64 -8 -8 по сезону 1004.2 1001.2
21 17.02 ЮВ 5-12
{17}
1000 м ливневой снег {метель} 10/10 600 м
[Cb cap]
-1.5 -4.5 80 -8 -8 по сезону 1002.4 999.4 -4.3 4 103
00 18.02 В 7-17
{17}
4000 м слабый ливневой снег {метель} 10/10 600 м
[Cb cap]
-0.9 -4.1 79 -8 -8 по сезону 999.4 996.4
03 18.02 В 7-17
{21}
500 м ливневой снег {метель} 10/10 600 м
[Cb cap]
-1.2 -2.5 91 -9 -9 по сезону 994.2 991.2
06 18.02 В 10-26
{26}
500 м ливневой снег {метель} 10/10 600 м
[Cb cap]
-1.4 -2.8 90 -10 -10 по сезону 990.5 987.6
09 18.02 СВ 10-20
{26}
200 м ливневой снег {метель} 10/10 600 м
[Cb cap]
-1.4 -2.5 92 -10 -10 по сезону 986.5 983.5 -0.5 11
12 18.02 В 7-21
{22}
500 м ливневой снег {метель} 10/10 600 м
[Cb cap]
-0.8 -1.8 93 -8 -8 по сезону 982.7 979.8
15 18.02 ЮВ 8-13
{22}
10 км слабый ливневой снег {метель} 10/10 600 м
[Cb cap]
-2.2 -4.0 87 -10 -10 по сезону 983.5 980.5
18 18.02 ЮВ 2
{13}
20 км в посл. час ливневой снег {метель} 8/8 600 м
[Sc]
-2.3 -5.8 77 -6 -6 тепло 985.4 982.4
21 18.02 ЮВ 3 20 км 9/5 600 м
[Sc Ac trans Ci fib]
-2.5 -7.7 67 -7 -7 тепло 985.9 983.0 -3.0 14 121
00 19.02 ЮВ 5
{12}
10 км в посл. час крупа {ливн. осадки} 8/6 600 м
[Cb cap Ci fib]
-1.3 -8.2 59 -7 -6 по сезону 986.5 983.5 -3.3
03 19.02 ЮВ 5-11
{12}
20 км позёмок {ливн. осадки, метель} 4/4 600 м
[Sc diur, vesp]
-1.0 -6.8 65 -7 -6 по сезону 986.2 983.2
06 19.02 В 4
{12}
10 км слабый ливневой снег {метель} 9/9 600 м
[Cb cap]
-1.8 -5.6 75 -7 -7 по сезону 986.6 983.6
09 19.02 ЮВ 6-12
{13}
1000 м ливневой снег {метель} 10/10 600 м
[Cb cap]
-3.0 -4.2 91 -10 -10 по сезону 987.7 984.7 +0.2 1
12 19.02 В 6-12
{15}
20 км позёмок {ливн. осадки, метель} 10/8 600 м
[Sc diur, vesp Ac und]
-1.5 -5.4 75 -8 -8 по сезону 987.6 984.7
15 19.02 В 7-18
{18}
4000 м слабый ливневой снег {метель} 10/10 600 м
[Cb cap]
-1.7 -4.8 79 -9 -9 по сезону 986.9 983.9
18 19.02 В 5-12
{18}
10 км слабый ливневой снег {метель} 10/10 600 м
[Cb cap]
-1.1 -6.2 68 -7 -7 тепло 986.7 983.7
21 19.02 В 5-12
{17}
1000 м ливневой снег {метель} 10/10 600 м
[Cb cap]
-2.1 -4.3 85 -9 -9 по сезону 987.0 984.0 -3.0 5 122
00 20.02 СВ 5-12
{15}
10 км слабый ливневой снег {метель} 9/8 600 м
[Cb cap Ci fib]
-1.5 -6.4 69 -8 -7 по сезону 987.6 984.7
03 20.02 В 4-11
{13}
500 м ливневой снег {метель} 10/10 600 м
[Cb cap]
-1.9 -4.3 84 -8 -8 по сезону 987.2 984.2
06 20.02 СВ 5-12
{13}
20 км позёмок {ливн. осадки, метель} 9/3 600 м
[Sc Ac trans Ci fib]
-1.1 -7.4 62 -7 -7 по сезону 987.1 984.1
09 20.02 СВ 4
{12}
20 км {метель} 10/5 600 м
[Sc Ac As]
-0.8 -8.1 58 -6 -6 по сезону 987.9 985.0 -0.7 1
12 20.02 СЗ 3 20 км {ливн. осадки, метель} 10/8 600 м
[Sc diur, vesp Ac As]
-1.9 -6.7 70 -7 -7 по сезону 988.6 985.6
15 20.02 С 3 20 км 10/8 600 м
[Sc Ac As]
-1.6 -9.9 53 -6 -6 тепло 989.7 986.8
18 20.02 С 3 20 км 10/5 600 м
[Sc Ac As Ci fib]
-2.0 -10.9 51 -6 -6 тепло 989.9 987.0
21 20.02 С 5 50 км 10/3 600 м
[Sc Ac trans Ci fib]
-2.7 -10.4 55 -9 -9 по сезону 991.2 988.2 -2.7 0.0 121
00 21.02 С 5 500 м ливневой снег 10/10 600 м
[Cb cap]
-3.9 -5.6 88 -11 -11 по сезону 992.1 989.1 -3.9
03 21.02 С 3 20 км в посл. час ливневой снег 10/10 600 м
[Sc]
-2.5 -4.7 85 -8 -8 по сезону 991.1 988.2
06 21.02 В 6-12
{13}
20 км позёмок {ливн. осадки, метель} 10/10 600 м
[Sc]
+0.1 -8.3 53 -6 -6 по сезону 990.0 987.0
09 21.02 С 2
{14}
20 км в посл. час ливневой снег {метель} 10/10 600 м
[Sc]
-1.3 -6.2 69 -5 -5 тепло 989.9 986.9 +0.7 2

 

Местоположение метеостанции Петропавловск-Камчатский (Камчатский край, Россия): широта 52.87 долгота 158.60 высота над уровнем моря 24 м.

В архиве по умолчанию представлена погода в Петропавловск-Камчатском за последнюю неделю. Архивные данные за месяц целиком и за предыдущие месяцы, начиная с января 2011 года, Вы можете получить, выбрав интересующий диапазон дат из раскрывающегося списка и нажав кнопку "Ввод!".

Внимание! Время в таблицах - всемирное. Для получения местного времени необходимо прибавить поправку, которая в Петропавловск-Камчатском равна 12 ч.

Смотрите также архив погоды в соседних городах и на ближайших метеорологических станциях:

Погода в Петропавловском Маяке (Камчатский край, Россия) (7 км)
Погода в Петропавловск-Камч. 2 (Камчатский край, Россия) (24 км)
Погода в Сосновке (Камчатский край, Россия) (31 км)
Погода в Начиках (Камчатский край, Россия) (66 км)
Погода в Водопадной (Камчатский край, Россия) (124 км)
Погода в Пущино (Камчатский край, Россия) (151 км)
Погода в Большерецке (Камчатский край, Россия) (155 км)
Погода в Семячике (Камчатский край, Россия) (163 км)
Погода в Мильково (Камчатский край, Россия) (201 км)
Погода в Озерной (Камчатский край, Россия) (215 км)

Пояснения к столбцам:

Ветер - указаны скорость ветра в м/с - средняя за 10 мин, порывы в срок и между сроками (в фигурных скобках) и направление, откуда дует ветер: С - северный, СВ - северо-восточный, В - восточный, ЮВ - юго-восточный, Ю - южный, ЮЗ - юго-западный, З - западный, СЗ - северо-западный.
Видимость - горизонтальная дальность видимости в метрах или километрах. При видимости от 1 до 10 км при отсутствии осадков обычно наблюдается дымка, при ухудшении видимости до 1 км и менее - туман. В сухую погоду видимость может ухудшаться дымом, пылью или мглою.
Явления - указаны атмосферные явления, наблюдавшиеся в срок или в последний час перед сроком; фигурными скобками обозначены явления, наблюдавшиеся между сроками (за 1-3 часа до срока); квадратными скобками обозначены град или гололедные отложения с указанием их диаметра в мм.
Облачность - указаны через наклонную черту общая и нижняя облачность в баллах и высота нижней границы облаков в метрах; квадратными скобками обозначены формы облаков: Ci - перистые, Cs - перисто-слоистые, Cc - перисто-кучевые, Ac - высококучевые, As - высокослоистые, Sc - слоисто-кучевые, Ns - слоисто-дождевые, Cu - кучевые, Cb - кучево-дождевые. Подробнее классификацию облаков см. в Атласе облаков (PDF).
T - Температура воздуха - температура, измеренная на высоте 2 м над землей.
Td - Температура точки росы - температура, при понижении до которой содержащийся в воздухе водяной пар достигнет насыщения.
f - Относительная влажность воздуха - влажноcть воздуха, измеренная на высоте 2 м над землей.
Te - Эффективная температура - температура, которую ощущает одетый по сезону человек в тени. Характеристика душности погоды. При расчете учитывается влияние влажности воздуха и скорости ветра на теплоощущения человека.
Tes - Эффективная температура на солнце - температура, которую ощущает человек, с поправкой на солнечный нагрев. Характеристика знойности погоды. Зависит от высоты солнца над горизонтом, облачности и скорости ветра. Ночью, в пасмурную погоду, а также при ветре 12 м/с и более поправка равна нулю.
P - Атмосферное давление - приведенное к уровню моря атмосферное давление.
Po - Атмосферное давление - измеренное на уровне метеостанции атмосферное давление.
Tmin - Минимальная температура - минимум температуры воздуха на высоте 2 м над землей.
Tmax - Максимальная температура - максимум температуры воздуха на высоте 2 м над землей.
R - Количество осадков - Количество выпавших осадков, мм. При наведении курсора мыши на число - период времени, за который выпало указанное количество осадков.
S - Снежный покров - Высота снежного покрова, см. При наведении курсора мыши на число - состояние снежного покрова и степень покрытия местности в баллах.